Newton, KS

5:45 AM CDT on July 26, 2017 (GMT -0500)
Newton City County

Weather History for KEWK - October, 2012

Change the Weather History Date:

Monday, October 8, 2012

  Actual Average Record
Temperature  
Mean Temperature 50 °F -  
Max Temperature 66 °F 68 °F 87 °F (2010)
Min Temperature 35 °F 48 °F 35 °F (2005)
Degree Days  
Heating Degree Days 14    
Moisture  
Dew Point 31 °F    
Average Humidity 49    
Maximum Humidity 70    
Minimum Humidity 28    
Precipitation  
Precipitation 0.00 in - - ()
Sea Level Pressure  
Sea Level Pressure 30.06 in    
Wind  
Wind Speed 13 mph (SSW)    
Max Wind Speed 23 mph    
Max Gust Speed 31 mph    
Visibility 10 miles    
Events      
Averages and records for this station are not official NWS values.
T = Trace of Precipitation, MM = Missing Value Source: NWS Daily Summary

Daily Weather History Graph

Daily Weather History Graph

Search for Another Location

Airport or City:

Trip Planner

Search our weather history database for the weather conditions in past years. The results will help you decide how hot, cold, wet, or windy it might be!

Date:

Astronomy

Oct. 08, 2012 Rise Set
Actual Time 7:31 AM CDT 7:00 PM CDT
Civil Twilight 7:05 AM CDT 7:27 PM CDT
Nautical Twilight 6:34 AM CDT 7:57 PM CDT
Astronomical Twilight 6:04 AM CDT 8:28 PM CDT
Moon 12:18 AM CDT (10/8) 2:45 PM CDT (10/8)
Length of Visible Light 12h 21m
Length of Day
11h 29m
Last Quarter, 46% of the Moon is Illuminated
Oct 8
Last Quarter
Oct 15
New
Oct 21
First Quarter
Oct 29
Full
Nov 6
Last Quarter

Hourly Weather History & Observations

Time (CDT) Temp. Windchill Dew Point Humidity Pressure Visibility Wind Dir Wind Speed Gust Speed Precip Events Conditions
12:15 AM 37.4 °F 30.8 °F 26.6 °F 65% 30.17 in 10.0 mi SSW 9.2 mph - N/A   Clear
12:35 AM 39.2 °F 33.0 °F 26.6 °F 61% 30.17 in 10.0 mi SSW 9.2 mph - N/A   Clear
12:55 AM 39.2 °F 33.0 °F 26.6 °F 61% 30.17 in 10.0 mi SW 9.2 mph - N/A   Clear
1:15 AM 37.4 °F 31.4 °F 26.6 °F 65% 30.17 in 10.0 mi SW 8.1 mph - N/A   Clear
1:35 AM 37.4 °F 30.8 °F 26.6 °F 65% 30.17 in 10.0 mi SW 9.2 mph - N/A   Clear
1:55 AM 37.4 °F 30.8 °F 26.6 °F 65% 30.16 in 10.0 mi SSW 9.2 mph - N/A   Clear
2:15 AM 37.4 °F 30.3 °F 26.6 °F 65% 30.16 in 10.0 mi SSW 10.4 mph - N/A   Clear
2:35 AM 37.4 °F 30.3 °F 26.6 °F 65% 30.16 in 10.0 mi SSW 10.4 mph - N/A   Clear
2:55 AM 37.4 °F 30.8 °F 26.6 °F 65% 30.15 in 10.0 mi SSW 9.2 mph - N/A   Clear
3:15 AM 37.4 °F 30.8 °F 26.6 °F 65% 30.14 in 10.0 mi SSW 9.2 mph - N/A   Clear
3:35 AM 37.4 °F 30.3 °F 26.6 °F 65% 30.13 in 10.0 mi SSW 10.4 mph - N/A   Clear
3:55 AM 37.4 °F 30.8 °F 26.6 °F 65% 30.13 in 10.0 mi SSW 9.2 mph - N/A   Clear
4:15 AM 37.4 °F 30.8 °F 26.6 °F 65% 30.13 in 10.0 mi SSW 9.2 mph - N/A   Clear
4:35 AM 37.4 °F 30.3 °F 26.6 °F 65% 30.13 in 10.0 mi SSW 10.4 mph - N/A   Clear
4:55 AM 37.4 °F 30.3 °F 26.6 °F 65% 30.13 in 10.0 mi SSW 10.4 mph - N/A   Clear
5:15 AM 35.6 °F 28.0 °F 26.6 °F 70% 30.13 in 10.0 mi SSW 10.4 mph - N/A   Clear
5:35 AM 37.4 °F 29.8 °F 26.6 °F 65% 30.13 in 10.0 mi SSW 11.5 mph - N/A   Clear
5:55 AM 37.4 °F 30.3 °F 26.6 °F 65% 30.12 in 10.0 mi SSW 10.4 mph - N/A   Clear
6:15 AM 37.4 °F 29.8 °F 26.6 °F 65% 30.12 in 10.0 mi SSW 11.5 mph - N/A   Clear
6:35 AM 37.4 °F 29.8 °F 26.6 °F 65% 30.12 in 10.0 mi SSW 11.5 mph - N/A   Clear
6:55 AM 35.6 °F 28.0 °F 26.6 °F 70% 30.12 in 10.0 mi South 10.4 mph - N/A   Clear
7:15 AM 35.6 °F 28.0 °F 26.6 °F 70% 30.11 in 10.0 mi South 10.4 mph - N/A   Clear
7:35 AM 35.6 °F 28.6 °F 26.6 °F 70% 30.11 in 10.0 mi South 9.2 mph - N/A   Clear
7:55 AM 35.6 °F 28.0 °F 26.6 °F 70% 30.11 in 10.0 mi South 10.4 mph - N/A   Clear
8:15 AM 37.4 °F 29.8 °F 28.4 °F 70% 30.11 in 10.0 mi South 11.5 mph - N/A   Clear
8:35 AM 39.2 °F 30.8 °F 28.4 °F 65% 30.11 in 10.0 mi SSW 15.0 mph - N/A   Clear
8:55 AM 42.8 °F 35.4 °F 30.2 °F 61% 30.10 in 10.0 mi SSW 15.0 mph 23.0 mph N/A   Clear
9:15 AM 44.6 °F 37.2 °F 30.2 °F 57% 30.11 in 10.0 mi SSW 17.3 mph 21.9 mph N/A   Clear
9:35 AM 46.4 °F 38.7 °F 30.2 °F 53% 30.10 in 10.0 mi SSW 20.7 mph 25.3 mph N/A   Clear
9:55 AM 46.4 °F 39.2 °F 30.2 °F 53% 30.11 in 10.0 mi SSW 18.4 mph - N/A   Clear
10:15 AM 48.2 °F - 32.0 °F 54% 30.11 in 10.0 mi SW 15.0 mph - N/A   Clear
10:35 AM 51.8 °F - 32.0 °F 47% 30.11 in 10.0 mi SSW 18.4 mph - N/A   Clear
10:55 AM 51.8 °F - 32.0 °F 47% 30.10 in 10.0 mi SSW 15.0 mph 23.0 mph N/A   Clear
11:15 AM 53.6 °F - 32.0 °F 44% 30.10 in 10.0 mi SSW 16.1 mph - N/A   Clear
11:35 AM 55.4 °F - 33.8 °F 44% 30.09 in 10.0 mi South 17.3 mph 23.0 mph N/A   Clear
11:55 AM 57.2 °F - 33.8 °F 41% 30.08 in 10.0 mi SSW 18.4 mph 24.2 mph N/A   Clear
12:15 PM 59.0 °F - 33.8 °F 39% 30.07 in 10.0 mi SSW 21.9 mph 26.5 mph N/A   Clear
12:35 PM 60.8 °F - 33.8 °F 36% 30.06 in 10.0 mi SSW 18.4 mph 29.9 mph N/A   Clear
12:55 PM 60.8 °F - 33.8 °F 36% 30.06 in 10.0 mi SSW 21.9 mph 28.8 mph N/A   Clear
1:15 PM 62.6 °F - 33.8 °F 34% 30.05 in 10.0 mi SSW 20.7 mph 31.1 mph N/A   Clear
1:35 PM 62.6 °F - 33.8 °F 34% 30.04 in 10.0 mi South 21.9 mph 29.9 mph N/A   Clear
1:55 PM 62.6 °F - 33.8 °F 34% 30.03 in 10.0 mi SSW 23.0 mph 31.1 mph N/A   Clear
2:15 PM 64.4 °F - 35.6 °F 34% 30.01 in 10.0 mi SSW 21.9 mph 27.6 mph N/A   Clear
2:35 PM 64.4 °F - 33.8 °F 32% 30.00 in 10.0 mi SSW 20.7 mph 29.9 mph N/A   Clear
2:55 PM 64.4 °F - 33.8 °F 32% 29.99 in 10.0 mi SSW 18.4 mph 29.9 mph N/A   Clear
3:15 PM 66.2 °F - 33.8 °F 30% 29.98 in 10.0 mi SSW 23.0 mph 26.5 mph N/A   Clear
3:35 PM 66.2 °F - 33.8 °F 30% 29.98 in 10.0 mi SSW 20.7 mph 29.9 mph N/A   Clear
3:55 PM 66.2 °F - 33.8 °F 30% 29.97 in 10.0 mi South 20.7 mph 27.6 mph N/A   Clear
4:15 PM 66.2 °F - 33.8 °F 30% 29.96 in 10.0 mi SSW 17.3 mph 27.6 mph N/A   Clear
4:35 PM 66.2 °F - 33.8 °F 30% 29.96 in 10.0 mi SSW 19.6 mph 26.5 mph N/A   Clear
4:55 PM 66.2 °F - 33.8 °F 30% 29.95 in 10.0 mi South 23.0 mph 26.5 mph N/A   Clear
5:15 PM 66.2 °F - 32.0 °F 28% 29.95 in 10.0 mi South 20.7 mph 31.1 mph N/A   Clear
5:35 PM 64.4 °F - 30.2 °F 28% 29.95 in 10.0 mi SSW 20.7 mph 28.8 mph N/A   Clear
5:55 PM 64.4 °F - 30.2 °F 28% 29.95 in 10.0 mi SSW 20.7 mph - N/A   Clear
6:15 PM 62.6 °F - 30.2 °F 30% 29.95 in 10.0 mi South 20.7 mph - N/A   Clear
6:35 PM 62.6 °F - 32.0 °F 32% 29.95 in 10.0 mi South 15.0 mph - N/A   Clear
6:55 PM 60.8 °F - 30.2 °F 31% 29.95 in 10.0 mi South 12.7 mph - N/A   Clear
7:15 PM 57.2 °F - 30.2 °F 36% 29.96 in 10.0 mi South 12.7 mph - N/A   Clear
7:35 PM 57.2 °F - 30.2 °F 36% 29.96 in 10.0 mi South 11.5 mph - N/A   Clear
7:55 PM 55.4 °F - 32.0 °F 41% 29.96 in 10.0 mi South 10.4 mph - N/A   Clear
8:35 PM 55.4 °F - 33.8 °F 44% 29.96 in 10.0 mi South 16.1 mph 19.6 mph N/A   Clear
8:55 PM 55.4 °F - 33.8 °F 44% 29.96 in 10.0 mi South 18.4 mph 24.2 mph N/A   Clear
9:15 PM 55.4 °F - 33.8 °F 44% 29.96 in 10.0 mi South 19.6 mph 24.2 mph N/A   Clear
9:35 PM 53.6 °F - 33.8 °F 47% 29.97 in 10.0 mi South 16.1 mph 24.2 mph N/A   Clear
9:55 PM 53.6 °F - 33.8 °F 47% 29.97 in 10.0 mi South 19.6 mph 24.2 mph N/A   Clear
10:15 PM 53.6 °F - 33.8 °F 47% 29.97 in 10.0 mi South 18.4 mph - N/A   Clear
10:55 PM 53.6 °F - 33.8 °F 47% 29.98 in 10.0 mi SSW 17.3 mph - N/A   Clear
11:15 PM 53.6 °F - 33.8 °F 47% 29.99 in 10.0 mi SSW 16.1 mph - N/A   Clear
11:35 PM 51.8 °F - 33.8 °F 50% 29.98 in 10.0 mi South 17.3 mph - N/A   Clear
11:55 PM 51.8 °F - 33.8 °F 50% 29.98 in 10.0 mi South 18.4 mph 23.0 mph N/A   Clear